Regional Weather Roundup
Issued by NWS Bismarck, ND

Home | Current Version | Previous Version | Text Only | Print | Product List | Glossary On
Versions: 1 2 3 4 5 6 7 8 9 10 11 12 13 14 15 16 17 18 19 20 21 22 23 24 25 26 27 28 29 30 31 32 33 34 35 36 37 38 39 40 41 42 43 44 45 46 47 48 49 50
000
ASUS43 KBIS 292302
RWRBIS

NWR BROADCAST TEXT
NATIONAL WEATHER SERVICE BISMARCK ND
600 PM CDT MON JUN 29 2015

NOTE: "FAIR" INDICATES FEW OR NO CLOUDS BELOW 12,000 FEET WITH NO
SIGNIFICANT WEATHER AND/OR OBSTRUCTIONS TO VISIBILITY.


CITY           SKY/WX    TMP DP  RH WIND       PRES   REMARKS
WILLISTON      SUNNY     96  59  29 NE15      29.91S HX  95
MINOT          SUNNY     88  56  33 VRB5      29.89F
MINOT AFB      NOT AVBL
BISMARCK       SUNNY     91  56  30 N6        29.92F
DICKINSON      SUNNY     92  60  34 W6        29.93F HX  91
GARRISON         N/A     90  56  31 CALM      29.91F
HETTINGER ARPT SUNNY     88  63  43 SW6       29.98F
JAMESTOWN      MOSUNNY   79  64  60 N6        29.91S
OAKES            N/A     79  66  65 N10       29.90S
STANLEY        FAIR      86  61  42 VRB7G14   29.94F
$$

CITY           SKY/WX    TMP DP  RH WIND       PRES   REMARKS
GRAND FORKS    CLOUDY    74  62  66 N10       29.87R
GRAND FORKS AF NOT AVBL
DEVILS LAKE    MOSUNNY   75  61  60 NE8       29.93R
FARGO          SUNNY     76  63  64 NW13      29.86S
CAVALIER       FAIR      73  63  68 N10       29.91S
GRAFTON        FAIR      75  64  69 N14       29.90R
LANGDON        FAIR      73  63  68 N10       29.95S
ROLLA            N/A     73  59  60 NE8       29.97S
$$

CITY           SKY/WX    TMP DP  RH WIND       PRES   REMARKS
ABERDEEN       MOSUNNY   89  62  40 N10       29.88F
MOBRIDGE       MOSUNNY   93  55  27 NW8       29.91F HX  91
BUFFALO          N/A     92  54  27 W14       29.95F HX  90
RAPID CITY     SUNNY     89  58  34 E6        30.05S
GLASGOW        MOSUNNY   94  46  19 NE10      29.94F HX  90
SIDNEY         SUNNY     97  52  21 NW10      29.91S HX  94
WOLF POINT     MOSUNNY   98  52  21 N12       29.93F HX  95
GLENDIVE       SUNNY     97  39  13 NW14G22   29.95S HX  92
MILES CITY     MOSUNNY   97  43  15 N12       29.96F HX  93
BAKER          MOSUNNY   92  57  30 NW13      29.99F HX  90
$$

CITY           SKY/WX    TMP DP  RH WIND       PRES   REMARKS
BILLINGS       MOSUNNY   98  38  12 E13       30.02F HX  93
GREAT FALLS    CLOUDY    94  50  22 NW15      30.01F HX  91
$$



USA.gov is the U.S. government's official web portal to all federal, state and local government web resources and services.